Weather History for Platteville, WI

Change the Weather History Date:

Friday, February 28, 2014

  Actual Average (KDBQ) Record (KDBQ)
Temperature  
Mean Temperature 10 °F 28 °F  
Max Temperature 24 °F 36 °F 62 °F (1895)
Min Temperature -4 °F 21 °F -10 °F (1962)
Degree Days  
Heating Degree Days 55 37  
Month to date heating degree days 1156  
Since 1 July heating degree days 5393  
Cooling Degree Days 0 0  
Month to date cooling degree days 0  
Year to date cooling degree days 0  
Moisture  
Dew Point 3 °F    
Average Humidity 66    
Maximum Humidity 91    
Minimum Humidity 57    
Precipitation  
Precipitation 0.01 in 0.06 in 0.79 in (1987)
Month to date precipitation 1.44  
Year to date precipitation 2.61  
Snow  
Snow 0.00 in 0.30 in - ()
Month to date snowfall 9.0  
Since 1 July snowfall 33.6  
Snow Depth -    
Sea Level Pressure  
Sea Level Pressure 30.01 in    
Wind  
Wind Speed 8 mph (SE)    
Max Wind Speed 20 mph    
Max Gust Speed 16 mph    
Visibility 8 miles    
Events      
T = Trace of Precipitation, MM = Missing Value Source: NWS Daily Summary

Daily Weather History Graph

Daily Weather History Graph

Search for Another Location

Airport:

Trip Planner

Search our weather history database for the weather conditions in past years. The results will help you decide how hot, cold, wet, or windy it might be!

Date:

Astronomy

Feb. 28, 2014 Rise Set
Actual Time 6:39 AM CST 5:50 PM CST
Civil Twilight 6:10 AM CST 6:18 PM CST
Nautical Twilight 5:38 AM CST 6:51 PM CST
Astronomical Twilight 5:05 AM CST 7:24 PM CST
Moon 5:54 AM CST (2/28) 5:27 PM CST (2/28)
Length of Visible Light 12h 07m
Length of Day
11h 11m
Waning Crescent, 1% of the Moon is Illuminated
Feb 28
Waning Crescent
Mar 1
New
Mar 8
First Quarter
Mar 16
Full
Mar 23
Last Quarter

Hourly Weather History & Observations

Time (CST) Temp. Windchill Dew Point Humidity Pressure Visibility Wind Dir Wind Speed Gust Speed Precip Events Conditions
12:15 AM -3.6 °F -12.0 °F -14.8 °F 59% 30.13 in 10.0 mi SE 3.5 mph - N/A   Clear
12:35 AM -4.4 °F -15.0 °F -14.8 °F 61% 30.12 in 10.0 mi ESE 4.6 mph - N/A   Clear
12:55 AM -4.5 °F -15.2 °F -15.0 °F 61% 30.11 in 10.0 mi ESE 4.6 mph - N/A   Clear
1:15 AM -4.4 °F -16.7 °F -14.8 °F 61% 30.11 in 10.0 mi ESE 5.8 mph - N/A   Clear
1:30 AM -4.0 °F -16.3 °F -14.8 °F 60% 30.11 in 10.0 mi ESE 5.8 mph - N/A   Clear
1:55 AM -4.0 °F -16.3 °F -14.8 °F 60% 30.11 in 10.0 mi East 5.8 mph - N/A   Clear
2:15 AM -4.5 °F -16.9 °F -14.8 °F 61% 30.11 in 10.0 mi East 5.8 mph - N/A   Clear
2:35 AM -4.2 °F -16.5 °F -14.8 °F 60% 30.10 in 10.0 mi ESE 5.8 mph - N/A   Clear
2:55 AM -3.8 °F -17.5 °F -14.8 °F 59% 30.10 in 10.0 mi ESE 6.9 mph - N/A   Clear
3:15 AM -4.0 °F -17.8 °F -14.8 °F 60% 30.09 in 10.0 mi ESE 6.9 mph - N/A   Clear
3:35 AM -4.0 °F -16.3 °F -14.8 °F 60% 30.09 in 10.0 mi ESE 5.8 mph - N/A   Clear
3:55 AM -4.0 °F -19.0 °F -14.8 °F 60% 30.08 in 10.0 mi ESE 8.1 mph - N/A   Clear
4:15 AM -3.6 °F -19.7 °F -14.8 °F 59% 30.08 in 10.0 mi ESE 9.2 mph - N/A   Clear
4:35 AM -3.1 °F -20.1 °F -14.3 °F 59% 30.08 in 10.0 mi ESE 10.4 mph - N/A   Clear
4:55 AM -2.6 °F -19.4 °F -13.5 °F 60% 30.08 in 10.0 mi ESE 10.4 mph - N/A   Clear
5:15 AM -1.5 °F -16.0 °F -12.8 °F 59% 30.08 in 10.0 mi ESE 8.1 mph - N/A   Clear
5:35 AM -0.8 °F -15.1 °F -11.4 °F 61% 30.08 in 10.0 mi SE 8.1 mph - N/A   Clear
5:55 AM 0.3 °F -14.8 °F -10.5 °F 60% 30.07 in 10.0 mi ESE 9.2 mph - N/A   Clear
6:15 AM 1.2 °F -13.7 °F -9.8 °F 60% 30.07 in 10.0 mi SE 9.2 mph - N/A   Clear
6:35 AM 1.8 °F -13.1 °F -9.4 °F 60% 30.06 in 10.0 mi SE 9.2 mph - N/A   Clear
6:55 AM 2.1 °F -15.2 °F -8.7 °F 61% 30.05 in 10.0 mi SE 12.7 mph - N/A   Scattered Clouds
7:15 AM 2.3 °F -12.4 °F -8.5 °F 61% 30.07 in 10.0 mi SE 9.2 mph - N/A   Scattered Clouds
7:35 AM 2.8 °F -11.7 °F -8.0 °F 61% 30.06 in 10.0 mi SE 9.2 mph - N/A   Clear
7:55 AM 3.6 °F -11.8 °F -7.4 °F 60% 30.06 in 10.0 mi SE 10.4 mph - N/A   Scattered Clouds
8:15 AM 4.5 °F -12.3 °F -6.0 °F 62% 30.04 in 10.0 mi SE 12.7 mph - N/A   Scattered Clouds
8:35 AM 5.5 °F -11.6 °F -5.1 °F 62% 30.04 in 10.0 mi SE 13.8 mph - N/A   Scattered Clouds
8:55 AM 6.6 °F -9.5 °F -4.4 °F 61% 30.03 in 10.0 mi SE 12.7 mph - N/A   Scattered Clouds
9:15 AM 8.4 °F -6.5 °F -3.1 °F 60% 30.03 in 10.0 mi SE 11.5 mph 16.1 mph N/A   Clear
9:35 AM 9.5 °F -7.8 °F -2.4 °F 59% 30.03 in 10.0 mi SE 16.1 mph - N/A   Clear
9:55 AM 10.4 °F -6.6 °F -1.1 °F 60% 30.02 in 10.0 mi SE 16.1 mph - N/A   Clear
10:15 AM 11.3 °F -2.9 °F -0.2 °F 60% 30.02 in 10.0 mi SE 11.5 mph - N/A   Scattered Clouds
10:35 AM 12.2 °F -3.1 °F 0.3 °F 59% 30.02 in 10.0 mi SE 13.8 mph - N/A   Mostly Cloudy
10:55 AM 13.5 °F -2.1 °F 1.0 °F 58% 30.01 in 10.0 mi SE 15.0 mph - N/A   Overcast
11:15 AM 14.4 °F -1.0 °F 2.3 °F 59% 30.00 in 10.0 mi SE 15.0 mph - N/A   Overcast
11:35 AM 15.3 °F -1.8 °F 2.7 °F 58% 29.99 in 10.0 mi SE 19.6 mph - N/A   Overcast
11:55 AM 16.2 °F 0.8 °F 3.7 °F 58% 29.98 in 10.0 mi SE 16.1 mph - N/A   Scattered Clouds
12:15 PM 16.9 °F 1.7 °F 4.1 °F 57% 29.97 in 10.0 mi SE 16.1 mph - N/A   Mostly Cloudy
12:35 PM 17.6 °F 2.7 °F 5.5 °F 59% 29.96 in 10.0 mi SE 16.1 mph - N/A   Mostly Cloudy
12:55 PM 18.1 °F 3.9 °F 5.9 °F 59% 29.95 in 10.0 mi SSE 15.0 mph - N/A   Scattered Clouds
1:15 PM 18.5 °F 3.8 °F 6.4 °F 59% 29.94 in 10.0 mi SSE 16.1 mph - N/A   Scattered Clouds
1:35 PM 18.9 °F 5.3 °F 6.8 °F 59% 29.93 in 10.0 mi SSE 13.8 mph - N/A   Mostly Cloudy
1:55 PM 19.6 °F 6.2 °F 7.7 °F 60% 29.92 in 10.0 mi SSE 13.8 mph - N/A   Scattered Clouds
2:15 PM 20.8 °F 10.4 °F 9.3 °F 61% 29.92 in 10.0 mi SSE 9.2 mph - N/A   Mostly Cloudy
2:35 PM 22.5 °F 10.5 °F 9.9 °F 59% 29.92 in 10.0 mi SSE 12.7 mph - N/A   Mostly Cloudy
2:55 PM 23.0 °F 11.1 °F 10.8 °F 60% 29.91 in 10.0 mi SSE 12.7 mph - N/A   Overcast
3:15 PM 23.7 °F 12.1 °F 11.8 °F 61% 29.90 in 10.0 mi SSE 12.7 mph - N/A   Overcast
3:35 PM 24.1 °F 12.0 °F 11.5 °F 59% 29.91 in 10.0 mi South 13.8 mph - N/A   Overcast
3:55 PM 24.4 °F 14.2 °F 12.4 °F 60% 29.91 in 10.0 mi South 10.4 mph - N/A   Overcast
4:15 PM 24.6 °F 17.7 °F 13.5 °F 63% 29.91 in 10.0 mi South 5.8 mph - N/A   Mostly Cloudy
4:35 PM 24.6 °F - 12.7 °F 61% 29.92 in 10.0 mi Calm Calm - N/A   Clear
4:55 PM 24.6 °F 18.8 °F 14.0 °F 64% 29.92 in 10.0 mi South 4.6 mph - N/A   Clear
5:15 PM 24.4 °F - 14.7 °F 67% 29.94 in 10.0 mi Calm Calm - N/A   Clear
5:35 PM 24.4 °F 18.6 °F 14.9 °F 67% 29.92 in 10.0 mi SSE 4.6 mph - N/A   Scattered Clouds
5:55 PM 24.1 °F - 15.8 °F 71% 29.94 in 10.0 mi Calm Calm - N/A   Scattered Clouds
6:15 PM 24.4 °F - 15.1 °F 68% 29.95 in 10.0 mi Calm Calm - N/A   Scattered Clouds
6:35 PM 24.1 °F 17.0 °F 15.6 °F 70% 29.94 in 10.0 mi SSE 5.8 mph - N/A   Clear
6:55 PM 24.4 °F - 15.4 °F 69% 29.95 in 10.0 mi Calm Calm - N/A   Clear
7:15 PM 24.3 °F - 15.4 °F 69% 29.96 in 3.0 mi Calm Calm - N/A   Mostly Cloudy
7:35 PM 22.6 °F - 18.5 °F 84% 29.96 in 2.5 mi Calm Calm - N/A   Overcast
7:55 PM 22.6 °F - 19.4 °F 87% 29.96 in 4.0 mi Calm Calm - N/A   Overcast
8:15 PM 22.1 °F 15.9 °F 19.4 °F 89% 29.98 in 4.0 mi NNW 4.6 mph - N/A   Scattered Clouds
8:35 PM 22.5 °F 17.8 °F 19.6 °F 89% 29.98 in 3.0 mi North 3.5 mph - N/A   Scattered Clouds
8:55 PM 22.5 °F - 19.9 °F 90% 29.98 in 2.5 mi Calm Calm - N/A   Clear
9:15 PM 22.5 °F - 20.1 °F 91% 29.99 in 1.2 mi Calm Calm - N/A   Scattered Clouds
9:35 PM 22.1 °F 17.4 °F 19.6 °F 90% 29.99 in 7.0 mi NNW 3.5 mph - N/A   Clear
9:55 PM 22.1 °F 17.4 °F 19.4 °F 89% 30.00 in 2.0 mi NW 3.5 mph - N/A   Clear
10:15 PM 21.9 °F 13.4 °F 19.4 °F 90% 30.00 in 1.8 mi NW 6.9 mph - 0.01 in   Unknown
10:35 PM 20.7 °F 9.5 °F 17.6 °F 88% 30.01 in 2.5 mi NNW 10.4 mph - 0.01 in   Clear
10:55 PM 20.3 °F 9.8 °F 17.2 °F 88% 30.01 in 4.0 mi NW 9.2 mph - 0.01 in   Clear
11:15 PM 20.1 °F 12.3 °F 17.2 °F 89% 30.02 in 2.5 mi NW 5.8 mph - N/A   Scattered Clouds
11:35 PM 19.9 °F 11.1 °F 16.7 °F 87% 30.02 in 2.0 mi NNW 6.9 mph - N/A   Clear
11:55 PM 19.6 °F 8.9 °F 16.2 °F 87% 30.02 in 3.0 mi NNW 9.2 mph - N/A   Clear